DW8979 Weather Reports


Display with metric or nautical units.
time (UTC)temp
F
wind
direction
speed
MPH
gust
MPH
rain 1hr
in
rain 24hr
in
rain mn
in
humidity
%
barometer
mb
20181018080819 57 232 0.0 0.0 0.00 0.00 0.00 33 1019.4
20181018080332 57 232 0.0 0.0 0.00 0.00 0.00 34 1019.5
20181018075828 57 232 0.0 1.0 0.00 0.00 0.00 34 1019.4
20181018075311 58 232 0.0 1.0 0.00 0.00 0.00 34 1019.5
20181018074802 58 232 0.0 0.0 0.00 0.00 0.00 35 1019.7
20181018074240 58 232 0.0 0.0 0.00 0.00 0.00 38 1019.7
20181018073739 58 232 0.0 0.0 0.00 0.00 0.00 39 1019.7
20181018073239 57 232 0.0 0.0 0.00 0.00 0.00 38 1019.7
20181018072730 57 232 0.0 0.0 0.00 0.00 0.00 39 1019.5
20181018072211 57 232 0.0 0.0 0.00 0.00 0.00 41 1019.5
20181018071653 57 232 0.0 0.0 0.00 0.00 0.00 43 1019.4
20181018071143 57 232 0.0 0.0 0.00 0.00 0.00 43 1019.4
20181018070621 57 232 0.0 0.0 0.00 0.00 0.00 42 1019.4
20181018070118 57 232 0.0 0.0 0.00 0.00 0.00 41 1019.4
20181018065550 56 232 0.0 0.0 0.00 0.00 0.00 42 1019.4
20181018065040 56 232 0.0 0.0 0.00 0.00 0.00 43 1019.3
20181018064522 56 232 0.0 0.0 0.00 0.00 0.00 45 1019.3
20181018063959 56 232 0.0 0.0 0.00 0.00 0.00 45 1019.2
20181018063509 56 232 0.0 0.0 0.00 0.00 0.00 46 1019.2
20181018062956 56 232 0.0 0.0 0.00 0.00 0.00 44 1019.2
20181018062455 56 232 0.0 0.0 0.00 0.00 0.00 45 1019.2
20181018061947 55 232 0.0 0.0 0.00 0.00 0.00 44 1019.1
20181018061433 55 232 0.0 0.0 0.00 0.00 0.00 46 1019.2
20181018060925 55 232 0.0 0.0 0.00 0.00 0.00 47 1019.1
20181018060913 55 232 0.0 0.0 0.00 0.00 0.00 46 1019.1
20181018060416 55 232 0.0 0.0 0.00 0.00 0.00 46 1019.1
20181018055913 55 232 0.0 0.0 0.00 0.00 0.00 47 1019.1
20181018055355 55 232 0.0 0.0 0.00 0.00 0.00 49 1019.1
20181018054853 55 232 0.0 0.0 0.00 0.00 0.00 50 1019.2
20181018054346 55 232 0.0 0.0 0.00 0.00 0.00 49 1019.2
20181018053815 55 232 0.0 0.0 0.00 0.00 0.00 49 1019.3
20181018053255 56 232 0.0 0.0 0.00 0.00 0.00 48 1019.2
20181018052730 56 232 0.0 0.0 0.00 0.00 0.00 45 1019.2
20181018052224 56 232 0.0 0.0 0.00 0.00 0.00 49 1019.2
20181018051717 56 232 0.0 0.0 0.00 0.00 0.00 47 1019.3
20181018051226 56 232 0.0 0.0 0.00 0.00 0.00 44 1019.2
20181018050645 56 232 0.0 0.0 0.00 0.00 0.00 44 1019.2
20181018050137 56 232 0.0 0.0 0.00 0.00 0.00 41 1019.2
20181018045641 56 232 0.0 0.0 0.00 0.00 0.00 40 1019.2
20181018045102 56 232 0.0 0.0 0.00 0.00 0.00 40 1019.2
20181018044601 56 232 0.0 0.0 0.00 0.00 0.00 38 1019.2
20181018044110 56 232 0.0 0.0 0.00 0.00 0.00 37 1019.2
20181018044052 56 232 0.0 0.0 0.00 0.00 0.00 37 1019.2
20181018043545 56 232 0.0 0.0 0.00 0.00 0.00 37 1019.2
20181018043100 56 232 0.0 0.0 0.00 0.00 0.00 41 1019.2
20181018042541 57 232 0.0 0.0 0.00 0.00 0.00 43 1019.1
20181018042024 57 232 0.0 0.0 0.00 0.00 0.00 42 1019.2
20181018041523 57 232 0.0 0.0 0.00 0.00 0.00 42 1019.3
20181018041009 58 232 0.0 0.0 0.00 0.00 0.00 42 1019.2
20181018040431 58 232 0.0 0.0 0.00 0.00 0.00 41 1019.1
20181018035911 58 232 0.0 0.0 0.00 0.00 0.00 39 1019.1
20181018035412 58 232 0.0 0.0 0.00 0.00 0.00 39 1019.1
20181018034846 58 232 0.0 0.0 0.00 0.00 0.00 37 1019.1
20181018034352 59 232 0.0 0.0 0.00 0.00 0.00 35 1019.1
20181018033835 59 232 0.0 0.0 0.00 0.00 0.00 34 1019.1
20181018033323 59 232 0.0 0.0 0.00 0.00 0.00 33 1019.1
20181018032815 59 232 0.0 0.0 0.00 0.00 0.00 32 1019.0
20181018032307 60 232 0.0 0.0 0.00 0.00 0.00 33 1019.0
20181018031806 60 232 0.0 0.0 0.00 0.00 0.00 32 1019.0
20181018031243 60 232 0.0 0.0 0.00 0.00 0.00 33 1019.1
20181018030741 60 232 0.0 0.0 0.00 0.00 0.00 34 1019.0
20181018030223 60 232 0.0 0.0 0.00 0.00 0.00 33 1019.0
20181018025711 60 232 0.0 0.0 0.00 0.00 0.00 35 1019.0
20181018025206 60 232 0.0 0.0 0.00 0.00 0.00 37 1018.9
20181018024655 60 232 0.0 0.0 0.00 0.00 0.00 38 1018.9
20181018024128 60 232 0.0 0.0 0.00 0.00 0.00 38 1018.9
20181018023607 60 232 0.0 0.0 0.00 0.00 0.00 38 1018.9
20181018023110 60 232 0.0 0.0 0.00 0.00 0.00 42 1018.8
20181018022610 60 232 0.0 0.0 0.00 0.00 0.00 47 1018.8
20181018022045 60 232 0.0 0.0 0.00 0.00 0.00 48 1018.7
20181018021544 60 232 0.0 0.0 0.00 0.00 0.00 50 1018.7
20181018021021 60 232 0.0 0.0 0.00 0.00 0.00 49 1018.7
20181018020515 61 232 0.0 0.0 0.00 0.00 0.00 49 1018.7
20181018020034 61 232 0.0 0.0 0.00 0.00 0.00 48 1018.8
20181018015458 62 232 0.0 0.0 0.00 0.00 0.00 47 1018.7
20181018014951 62 232 0.0 0.0 0.00 0.00 0.00 46 1018.8
20181018014443 62 232 0.0 0.0 0.00 0.00 0.00 45 1018.8
20181018013933 63 232 0.0 0.0 0.00 0.00 0.00 44 1018.8
20181018013435 64 232 0.0 0.0 0.00 0.00 0.00 43 1018.8
20181018012918 64 232 0.0 1.0 0.00 0.00 0.00 42 1018.9
20181018012417 64 232 0.0 1.0 0.00 0.00 0.00 41 1018.9
20181018011915 65 232 1.0 2.0 0.00 0.00 0.00 40 1019.0
20181018011413 65 232 1.0 3.0 0.00 0.00 0.00 39 1018.9
20181018010909 66 232 0.0 3.0 0.00 0.00 0.00 37 1019.0
20181018010405 67 232 0.0 4.0 0.00 0.00 0.00 37 1019.0
20181018005904 67 232 0.0 4.0 0.00 0.00 0.00 36 1019.0
20181018005403 68 232 0.0 3.0 0.00 0.00 0.00 36 1019.1
20181018004853 69 232 1.0 3.0 0.00 0.00 0.00 35 1019.2
20181018004419 69 232 1.0 3.0 0.00 0.00 0.00 35 1019.2
20181018003851 70 232 0.0 3.0 0.00 0.00 0.00 33 1019.4
20181018003344 72 232 0.0 3.0 0.00 0.00 0.00 32 1019.5
20181018002849 72 232 0.0 0.0 0.00 0.00 0.00 32 1019.7
20181018002315 73 232 0.0 2.0 0.00 0.00 0.00 31 1019.5
20181018001800 73 232 0.0 2.0 0.00 0.00 0.00 31 1019.7
20181018001256 73 232 0.0 2.0 0.00 0.00 0.00 31 1019.7
20181018000802 73 232 0.0 1.0 0.00 0.00 0.00 29 1019.7
20181018000251 73 232 0.0 1.0 0.00 0.00 0.00 28 1019.8
20181017235743 74 232 0.0 1.0 0.00 0.00 0.00 27 1019.9
20181017235241 74 232 0.0 1.0 0.00 0.00 0.00 27 1019.9
20181017234713 74 232 0.0 3.0 0.00 0.00 0.00 27 1019.9
20181017234214 75 233 0.0 3.0 0.00 0.00 0.00 27 1020.0
20181017233656 75 217 0.0 0.0 0.00 0.00 0.00 27 1020.1
20181017233143 75 217 0.0 5.0 0.00 0.00 0.00 27 1020.1
20181017232627 76 227 0.0 5.0 0.00 0.00 0.00 27 1020.2
20181017232119 76 227 0.0 5.0 0.00 0.00 0.00 25 1020.3
20181017231603 76 223 0.0 3.0 0.00 0.00 0.00 26 1020.3
20181017231031 75 226 0.0 3.0 0.00 0.00 0.00 26 1020.2
20181017230549 76 151 0.0 2.0 0.00 0.00 0.00 25 1020.2
20181017230016 76 228 0.0 2.0 0.00 0.00 0.00 24 1020.3
20181017225515 77 225 0.0 2.0 0.00 0.00 0.00 23 1020.4
20181017225000 77 240 0.0 5.0 0.00 0.00 0.00 24 1020.5
20181017224455 77 227 0.0 5.0 0.00 0.00 0.00 25 1020.4
20181017223945 77 229 0.0 4.0 0.00 0.00 0.00 23 1020.4
20181017223435 77 227 1.0 6.0 0.00 0.00 0.00 24 1020.4
20181017222934 77 231 1.0 6.0 0.00 0.00 0.00 23 1020.3
20181017222431 78 219 0.0 3.0 0.00 0.00 0.00 24 1020.4
20181017221920 78 223 0.0 2.0 0.00 0.00 0.00 23 1020.4
20181017221407 78 223 0.0 3.0 0.00 0.00 0.00 23 1020.4
20181017220903 78 221 0.0 3.0 0.00 0.00 0.00 21 1020.4
20181017220353 78 219 0.0 1.0 0.00 0.00 0.00 19 1020.4
20181017215821 78 196 0.0 1.0 0.00 0.00 0.00 22 1020.3
20181017215319 78 176 0.0 5.0 0.00 0.00 0.00 23 1020.3
20181017214816 79 233 1.0 5.0 0.00 0.00 0.00 22 1020.6
20181017214303 78 217 2.0 5.0 0.00 0.00 0.00 22 1020.4
20181017213753 78 215 2.0 6.0 0.00 0.00 0.00 22 1020.5
20181017213253 77 124 2.0 8.0 0.00 0.00 0.00 22 1020.5
20181017212749 78 219 2.0 8.0 0.00 0.00 0.00 21 1020.6
20181017212246 79 210 1.0 6.0 0.00 0.00 0.00 21 1020.7
20181017211747 79 218 3.0 8.0 0.00 0.00 0.00 21 1020.8
20181017211248 79 223 3.0 8.0 0.00 0.00 0.00 20 1020.8
20181017210746 79 224 2.0 7.0 0.00 0.00 0.00 21 1020.9
20181017210248 79 224 1.0 6.0 0.00 0.00 0.00 21 1020.9
20181017205746 79 204 2.0 6.0 0.00 0.00 0.00 21 1021.0
20181017205240 78 158 1.0 7.0 0.00 0.00 0.00 22 1021.0
20181017204738 77 156 1.0 7.0 0.00 0.00 0.00 23 1021.0
20181017204242 78 203 2.0 7.0 0.00 0.00 0.00 22 1021.0
20181017203737 78 136 2.0 7.0 0.00 0.00 0.00 22 1021.1
20181017203245 78 189 2.0 9.0 0.00 0.00 0.00 22 1021.2
20181017202735 78 189 2.0 9.0 0.00 0.00 0.00 21 1021.4
20181017202233 78 194 2.0 7.0 0.00 0.00 0.00 21 1021.4
20181017201739 78 150 2.0 6.0 0.00 0.00 0.00 21 1021.4
20181017201233 77 144 2.0 6.0 0.00 0.00 0.00 22 1021.4
20181017200733 77 223 2.0 8.0 0.00 0.00 0.00 21 1021.4
20181017200223 77 222 1.0 8.0 0.00 0.00 0.00 22 1021.5
20181017195723 76 223 2.0 7.0 0.00 0.00 0.00 21 1021.5
20181017195248 77 225 2.0 7.0 0.00 0.00 0.00 20 1021.8
20181017194717 76 225 1.0 6.0 0.00 0.00 0.00 20 1021.8
20181017194226 76 228 1.0 6.0 0.00 0.00 0.00 17 1021.6
20181017193707 75 130 1.0 5.0 0.00 0.00 0.00 20 1021.8
20181017193147 75 155 1.0 6.0 0.00 0.00 0.00 21 1021.8
20181017192646 75 150 2.0 6.0 0.00 0.00 0.00 21 1021.8
20181017192145 74 215 2.0 6.0 0.00 0.00 0.00 20 1021.8
20181017191643 73 215 2.0 6.0 0.00 0.00 0.00 23 1021.6
20181017191133 73 215 3.0 6.0 0.00 0.00 0.00 24 1021.6
20181017190634 73 229 2.0 6.0 0.00 0.00 0.00 25 1021.6
20181017190130 72 226 2.0 6.0 0.00 0.00 0.00 25 1021.6
20181017185634 72 226 3.0 6.0 0.00 0.00 0.00 25 1021.6
20181017185121 71 226 3.0 6.0 0.00 0.00 0.00 25 1021.5
20181017184621 72 226 2.0 6.0 0.00 0.00 0.00 24 1021.4
20181017184122 72 226 2.0 7.0 0.00 0.00 0.00 24 1021.5
20181017183619 71 226 3.0 7.0 0.00 0.00 0.00 25 1021.4
20181017183118 71 229 2.0 6.0 0.00 0.00 0.00 26 1021.4
20181017182613 71 229 2.0 5.0 0.00 0.00 0.00 26 1021.4
20181017182111 71 229 2.0 6.0 0.00 0.00 0.00 26 1021.5
20181017181559 71 229 2.0 6.0 0.00 0.00 0.00 26 1021.4
20181017181100 71 237 2.0 6.0 0.00 0.00 0.00 26 1021.3
20181017180545 71 237 2.0 6.0 0.00 0.00 0.00 26 1021.4
20181017180034 70 237 2.0 4.0 0.00 0.00 0.00 27 1021.3
20181017175523 69 237 2.0 5.0 0.00 0.00 0.00 27 1021.2
20181017175016 69 237 2.0 5.0 0.00 0.00 0.00 26 1021.2
20181017174515 69 237 1.0 4.0 0.00 0.00 0.00 26 1021.3
20181017174007 69 237 1.0 4.0 0.00 0.00 0.00 27 1021.3
20181017173505 69 237 2.0 4.0 0.00 0.00 0.00 27 1021.2
20181017173009 69 237 2.0 4.0 0.00 0.00 0.00 28 1021.2
20181017172500 69 237 1.0 6.0 0.00 0.00 0.00 27 1021.2
20181017171956 69 237 1.0 6.0 0.00 0.00 0.00 27 1021.1
20181017171502 68 238 1.0 4.0 0.00 0.00 0.00 28 1021.0
20181017170954 67 238 1.0 4.0 0.00 0.00 0.00 28 1020.9
20181017170445 66 238 2.0 5.0 0.00 0.00 0.00 27 1020.9
20181017165936 66 238 3.0 6.0 0.00 0.00 0.00 27 1020.8
20181017165434 66 282 1.0 4.0 0.00 0.00 0.00 27 1021.0
20181017165429 66 238 2.0 6.0 0.00 0.00 0.00 26 1020.9
20181017164944 66 282 1.0 4.0 0.00 0.00 0.00 27 1021.0
20181017164427 66 283 1.0 4.0 0.00 0.00 0.00 28 1020.9
20181017163917 66 283 1.0 4.0 0.00 0.00 0.00 27 1020.9
20181017163426 65 283 2.0 5.0 0.00 0.00 0.00 28 1020.8
20181017162915 65 283 2.0 5.0 0.00 0.00 0.00 28 1020.8
20181017162415 65 294 2.0 4.0 0.00 0.00 0.00 28 1020.8
20181017161925 65 304 1.0 3.0 0.00 0.00 0.00 27 1020.8
20181017161405 65 329 1.0 3.0 0.00 0.00 0.00 26 1020.8
20181017160911 65 329 1.0 3.0 0.00 0.00 0.00 26 1020.7
20181017160403 64 329 1.0 3.0 0.00 0.00 0.00 26 1020.5
20181017155858 64 329 1.0 3.0 0.00 0.00 0.00 26 1020.5
20181017155337 63 329 0.0 3.0 0.00 0.00 0.00 26 1020.4
20181017154853 62 329 0.0 0.0 0.00 0.00 0.00 26 1020.3
20181017154254 62 329 0.0 0.0 0.00 0.00 0.00 27 1020.2
20181017153739 61 329 0.0 0.0 0.00 0.00 0.00 28 1020.0
20181017153240 60 329 0.0 0.0 0.00 0.00 0.00 30 1019.9
20181017152734 59 329 0.0 0.0 0.00 0.00 0.00 31 1019.7
20181017152232 58 329 0.0 0.0 0.00 0.00 0.00 34 1019.5
20181017152229 58 329 0.0 0.0 0.00 0.00 0.00 31 1019.5
20181017151731 58 329 0.0 0.0 0.00 0.00 0.00 34 1019.5
20181017151141 58 329 0.0 0.0 0.00 0.00 0.00 34 1019.5
20181017150613 57 329 0.0 0.0 0.00 0.00 0.00 34 1019.4
20181017150102 57 329 0.0 0.0 0.00 0.00 0.00 33 1019.4
20181017145552 57 329 0.0 0.0 0.00 0.00 0.00 33 1019.4
20181017145057 56 329 0.0 0.0 0.00 0.00 0.00 34 1019.2
20181017144531 56 329 0.0 0.0 0.00 0.00 0.00 34 1019.2
20181017143952 56 329 0.0 0.0 0.00 0.00 0.00 35 1019.2
20181017143449 55 329 0.0 0.0 0.00 0.00 0.00 36 1019.1
20181017142949 55 329 0.0 0.0 0.00 0.00 0.00 35 1019.1
20181017142437 55 329 0.0 0.0 0.00 0.00 0.00 35 1019.0
20181017141909 56 329 0.0 0.0 0.00 0.00 0.00 34 1019.1
20181017141415 56 329 0.0 0.0 0.00 0.00 0.00 33 1019.1
20181017140910 56 329 0.0 0.0 0.00 0.00 0.00 33 1019.1
20181017140406 57 329 0.0 0.0 0.00 0.00 0.00 33 1019.1
20181017135847 57 329 0.0 0.0 0.00 0.00 0.00 33 1019.1
20181017135341 57 329 0.0 0.0 0.00 0.00 0.00 32 1019.1
20181017134823 58 329 0.0 0.0 0.00 0.00 0.00 32 1019.2
20181017134343 58 329 0.0 0.0 0.00 0.00 0.00 31 1019.3
20181017133813 59 329 0.0 0.0 0.00 0.00 0.00 31 1019.2
20181017133322 59 329 0.0 0.0 0.00 0.00 0.00 31 1019.3
20181017132812 59 329 0.0 0.0 0.00 0.00 0.00 30 1019.3
20181017132241 60 329 0.0 0.0 0.00 0.00 0.00 30 1019.2
20181017131701 60 329 0.0 0.0 0.00 0.00 0.00 30 1019.2
20181017131130 60 329 0.0 0.0 0.00 0.00 0.00 30 1019.2
20181017130619 60 329 0.0 0.0 0.00 0.00 0.00 30 1019.2
20181017130119 59 329 0.0 0.0 0.00 0.00 0.00 30 1019.1
20181017125605 59 329 0.0 0.0 0.00 0.00 0.00 30 1019.1
20181017125054 59 329 0.0 0.0 0.00 0.00 0.00 30 1019.1
20181017124543 59 329 0.0 0.0 0.00 0.00 0.00 30 1019.1
20181017124023 60 329 0.0 0.0 0.00 0.00 0.00 30 1019.1
20181017123517 60 329 0.0 0.0 0.00 0.00 0.00 30 1019.0
20181017123032 59 329 0.0 0.0 0.00 0.00 0.00 30 1018.9
20181017122525 59 329 0.0 0.0 0.00 0.00 0.00 30 1018.9
20181017122012 60 329 0.0 0.0 0.00 0.00 0.00 30 1018.9
20181017121458 60 329 0.0 0.0 0.00 0.00 0.00 30 1018.9
20181017120943 60 329 0.0 0.0 0.00 0.00 0.00 30 1018.9
20181017120445 60 329 0.0 0.0 0.00 0.00 0.00 30 1018.9
20181017115924 60 329 0.0 0.0 0.00 0.00 0.00 30 1018.9
20181017115418 60 329 0.0 0.0 0.00 0.00 0.00 30 1019.0
20181017114907 60 329 0.0 0.0 0.00 0.00 0.00 29 1019.0
20181017114349 60 329 0.0 0.0 0.00 0.00 0.00 29 1019.0
20181017113806 60 329 0.0 0.0 0.00 0.00 0.00 29 1019.0
20181017113318 60 329 0.0 0.0 0.00 0.00 0.00 27 1019.0
20181017112751 60 329 0.0 0.0 0.00 0.00 0.00 27 1018.9
20181017112228 60 329 0.0 0.0 0.00 0.00 0.00 27 1018.9
20181017111737 60 329 0.0 0.0 0.00 0.00 0.00 28 1018.8
20181017111701 60 329 0.0 0.0 0.00 0.00 0.00 30 1018.8
20181017111203 60 329 0.0 0.0 0.00 0.00 0.00 30 1018.8
20181017110637 60 329 0.0 0.0 0.00 0.00 0.00 30 1018.8
20181017110137 60 329 0.0 0.0 0.00 0.00 0.00 30 1018.9
20181017105627 60 329 0.0 0.0 0.00 0.00 0.00 30 1018.9
20181017105113 60 329 0.0 0.0 0.00 0.00 0.00 31 1018.9
20181017104603 60 329 0.0 0.0 0.00 0.00 0.00 31 1018.9
20181017104058 60 329 0.0 0.0 0.00 0.00 0.00 32 1018.9
20181017103607 60 329 0.0 0.0 0.00 0.00 0.00 31 1018.8
20181017103036 59 329 0.0 0.0 0.00 0.00 0.00 32 1018.8
20181017102519 59 329 0.0 0.0 0.00 0.00 0.00 33 1018.9
20181017102011 59 329 0.0 0.0 0.00 0.00 0.00 33 1019.0
20181017101437 59 329 0.0 0.0 0.00 0.00 0.00 33 1019.0
20181017100923 59 329 0.0 0.0 0.00 0.00 0.00 34 1019.0
20181017100403 59 329 0.0 0.0 0.00 0.00 0.00 34 1019.0
20181017095901 60 329 0.0 0.0 0.00 0.00 0.00 33 1019.0
20181017095353 60 329 0.0 0.0 0.00 0.00 0.00 33 1019.0
20181017094831 59 329 0.0 0.0 0.00 0.00 0.00 33 1018.9
20181017094312 59 329 0.0 0.0 0.00 0.00 0.00 33 1018.9
20181017093759 59 329 0.0 0.0 0.00 0.00 0.00 33 1018.9
20181017093251 59 329 0.0 0.0 0.00 0.00 0.00 33 1018.9
20181017092739 60 329 0.0 0.0 0.00 0.00 0.00 33 1019.0
20181017092221 60 329 0.0 0.0 0.00 0.00 0.00 33 1019.0
20181017091711 60 329 0.0 0.0 0.00 0.00 0.00 32 1018.9
20181017091213 60 329 0.0 0.0 0.00 0.00 0.00 30 1018.8
20181017090712 60 329 0.0 2.0 0.00 0.00 0.00 31 1019.0
20181017090118 60 329 0.0 2.0 0.00 0.00 0.00 30 1018.9
20181017085619 60 329 0.0 0.0 0.00 0.00 0.00 29 1018.9
20181017085118 61 329 0.0 0.0 0.00 0.00 0.00 27 1018.9
20181017084542 61 329 0.0 0.0 0.00 0.00 0.00 26 1018.9
20181017084031 61 329 0.0 0.0 0.00 0.00 0.00 26 1019.0
20181017083502 62 329 0.0 0.0 0.00 0.00 0.00 26 1019.0
20181017082958 62 329 0.0 0.0 0.00 0.00 0.00 25 1019.1
20181017082433 63 329 0.0 0.0 0.00 0.00 0.00 25 1019.2
20181017081928 63 329 0.0 0.0 0.00 0.00 0.00 24 1019.2
20181017081408 63 329 0.0 0.0 0.00 0.00 0.00 24 1019.1